Home > Weather > Bangui > Past weeks

Flag for Central African Republic Weather for the Past 2 Weeks in Bangui, Central African Republic

Now
91 °F

Partly sunny.


Feels Like: 103 °F
Forecast: 74 / 94 °F
Wind: 6 mph from Southwest

Location: Bangui Airport

Current Time: Apr 30, 2016 at 1:24:54 PM

Latest Report: Apr 30, 2016 at 12:00 PM


Visibility: N/A

Pressure: 29.83 "Hg

Humidity: 59%

Dew Point: 75 °F

Location of BanguiLocation

Historic Weather in Bangui — Graph

°F

Bangui Temperature Yesterday

Maximum temperature yesterday: 93 °F (at 4:00 PM)
Minimum temperature yesterday: 72 °F (at 5:00 AM)
Average temperature yesterday: 82 °F

High & Low Weather Summary for the Past Weeks

 TemperatureHumidityPressure
High99 °F (Apr 21, 3:00 PM)100% (Apr 16, 1:00 AM)30.01 "Hg (Apr 16, 1:00 AM)
Low36 °F (Apr 21, 4:00 PM)44% (Apr 19, 1:00 PM)29.68 "Hg (Apr 24, 4:00 PM)
Average81 °F81%29.83 "Hg
* Reported Apr 15 12:00 Noon — Apr 30 12:00 Noon, Bangui, Weather by CustomWeather, © 2016

Note: Actual official high and low records may vary slightly from our data, if they occured in-between our weather recording intervals... More about our weather records

Advertising

Bangui Weather History for the Previous 24 Hours

Scroll right to see more
 ConditionsComfort  
Time TempWeatherWind HumidityBarometerVisibility
12:00 PM
Sat, Apr 30
91 °FPartly sunny.6 mph59%29.83 "HgN/A
11:00 AM90 °FPartly sunny.6 mph67%29.86 "HgN/A
10:00 AM86 °FScattered clouds.6 mph70%29.86 "HgN/A
9:00 AM84 °FScattered clouds.2 mph74%29.89 "HgN/A
8:00 AM79 °FPartly sunny.6 mph89%29.89 "HgN/A
7:00 AM77 °FPassing clouds.1 mph89%29.86 "HgN/A
6:00 AM73 °FPassing clouds.No wind94%29.86 "HgN/A
5:00 AM73 °FClear.2 mph100%29.83 "Hg5 mi
4:00 AM73 °FClear.No wind100%29.83 "Hg5 mi
3:00 AM75 °FPassing clouds.2 mph89%29.80 "Hg5 mi
2:00 AM73 °FPassing clouds.2 mph94%29.80 "Hg5 mi
1:00 AM73 °FThunderstorms. Passing clouds.No wind94%29.83 "Hg5 mi
12:00 AM73 °FThunderstorms. Passing clouds.5 mph94%29.83 "Hg5 mi
11:00 PM
Fri, Apr 29
73 °FThunderstorms. Passing clouds.3 mph89%29.86 "Hg4 mi
10:00 PM81 °FThunderstorms. Passing clouds.7 mph84%29.86 "Hg4 mi
9:00 PM82 °FThunderstorms. Passing clouds.2 mph84%29.86 "Hg4 mi
8:00 PM82 °FThunderstorms. Passing clouds.2 mph79%29.80 "Hg4 mi
7:00 PM84 °FThunderstorms. Passing clouds.3 mph74%29.80 "Hg4 mi
6:00 PM86 °FPassing clouds.3 mph75%29.74 "Hg4 mi
5:00 PM90 °FPassing clouds.3 mph63%29.74 "HgN/A
4:00 PM93 °FPassing clouds.5 mph53%29.74 "HgN/A
3:00 PM91 °FPassing clouds.1 mph56%29.77 "HgN/A
2:00 PM91 °FPassing clouds.1 mph56%29.77 "HgN/A
1:00 PM91 °FPassing clouds.2 mph56%29.80 "HgN/A
Weather by CustomWeather, © 2016

See weather overviewHow to use our weather pages